TimeICT,TemperatureF,Dew PointF,Humidity,Sea Level PressureIn,VisibilityMPH,Wind Direction,Wind SpeedMPH,Gust SpeedMPH,PrecipitationIn,Events,Conditions,WindDirDegrees,DateUTC
12:00 AM,82.4,64.4,54,29.92,5.6,NNW,8.1,-,N/A,,Scattered Clouds,340,2013-03-06 17:00:00
12:30 AM,82.4,66.2,58,29.92,5.6,NNW,5.8,-,N/A,,Scattered Clouds,330,2013-03-06 17:30:00
1:00 AM,81,70,61,29.91,4,Calm,Calm,,,,Mist,,2013-03-06 18:00:00
1:00 AM,82.4,64.4,54,29.92,5.6,NNW,4.6,-,N/A,,Scattered Clouds,330,2013-03-06 18:00:00
1:30 AM,78.8,66.2,65,29.92,5.0,NNE,4.6,-,N/A,,Scattered Clouds,30,2013-03-06 18:30:00
2:00 AM,78.8,66.2,65,29.92,4.3,NNE,3.5,-,N/A,,Scattered Clouds,30,2013-03-06 19:00:00
2:30 AM,78.8,66.2,65,29.92,4.3,NE,4.6,-,N/A,,Mostly Cloudy,40,2013-03-06 19:30:00
3:00 AM,78.8,68.0,69,29.89,4.3,Variable,2.3,-,N/A,,Mostly Cloudy,0,2013-03-06 20:00:00
3:30 AM,77.0,68.0,74,29.89,4.3,ENE,3.5,-,N/A,,Mostly Cloudy,60,2013-03-06 20:30:00
4:00 AM,78.8,68.0,69,29.89,4.3,Variable,1.2,-,N/A,,Mostly Cloudy,0,2013-03-06 21:00:00
4:30 AM,77.0,68.0,74,29.89,3.7,ENE,2.3,-,N/A,,Mostly Cloudy,60,2013-03-06 21:30:00
5:00 AM,77.0,68.0,74,29.89,3.7,Calm,Calm,-,N/A,,Mostly Cloudy,0,2013-03-06 22:00:00
5:30 AM,75.2,68.0,78,29.92,3.7,NE,1.2,-,N/A,,Mostly Cloudy,50,2013-03-06 22:30:00
6:00 AM,77.0,69.8,78,29.92,3.1,Calm,Calm,-,N/A,,Mostly Cloudy,0,2013-03-06 23:00:00
6:30 AM,77.0,68.0,74,29.95,2.5,Calm,Calm,-,N/A,,Mostly Cloudy,0,2013-03-06 23:30:00
7:00 AM,79,67,57,29.94,4,Calm,Calm,,,,Mist,,2013-03-07 00:00:00
7:00 AM,77.0,69.8,78,29.95,3.1,Variable,2.3,-,N/A,,Mist,0,2013-03-07 00:00:00
7:30 AM,78.8,69.8,74,29.95,3.7,ESE,3.5,-,N/A,,Unknown,110,2013-03-07 00:30:00
8:00 AM,80.6,69.8,70,29.98,5.6,East,4.6,-,N/A,,Unknown,90,2013-03-07 01:00:00
8:30 AM,80.6,66.2,61,29.98,-9999.0,East,4.6,-,N/A,,Clear,100,2013-03-07 01:30:00
9:00 AM,84.2,66.2,55,29.98,-9999.0,East,8.1,-,N/A,,Clear,80,2013-03-07 02:00:00
9:30 AM,86.0,64.4,48,30.01,-9999.0,East,6.9,-,N/A,,Clear,80,2013-03-07 02:30:00
10:00 AM,87.8,64.4,46,30.01,-9999.0,ENE,6.9,-,N/A,,Clear,70,2013-03-07 03:00:00
10:30 AM,89.6,62.6,40,30.01,-9999.0,NE,6.9,-,N/A,,Clear,50,2013-03-07 03:30:00
11:00 AM,89.6,62.6,40,30.01,-9999.0,ENE,11.5,-,N/A,,Clear,60,2013-03-07 04:00:00
11:30 AM,91.4,62.6,38,29.98,-9999.0,East,10.4,-,N/A,,Clear,90,2013-03-07 04:30:00
12:00 PM,93.2,60.8,34,29.98,-9999.0,East,10.4,-,N/A,,Clear,100,2013-03-07 05:00:00
12:30 PM,93.2,62.6,36,29.95,-9999.0,East,8.1,-,N/A,,Clear,90,2013-03-07 05:30:00
1:00 PM,95,67,30,29.91,5,ENE,5.8,,,,Haze,60,2013-03-07 06:00:00
1:00 PM,93.2,62.6,36,29.95,-9999.0,East,5.8,-,N/A,,Clear,80,2013-03-07 06:00:00
1:30 PM,93.2,62.6,36,29.92,-9999.0,East,6.9,-,N/A,,Clear,100,2013-03-07 06:30:00
2:00 PM,93.2,60.8,34,29.89,-9999.0,NNE,4.6,-,N/A,,Clear,30,2013-03-07 07:00:00
2:30 PM,93.2,62.6,36,29.89,6.2,ENE,6.9,-,N/A,,Scattered Clouds,70,2013-03-07 07:30:00
3:00 PM,93.2,62.6,36,29.86,6.2,East,8.1,-,N/A,,Scattered Clouds,80,2013-03-07 08:00:00
3:30 PM,93.2,66.2,41,29.86,6.2,ENE,5.8,-,N/A,,Scattered Clouds,60,2013-03-07 08:30:00
4:00 PM,93.2,62.6,36,29.86,6.2,East,5.8,-,N/A,,Scattered Clouds,90,2013-03-07 09:00:00
4:30 PM,93.2,60.8,34,29.86,6.2,East,5.8,-,N/A,,Scattered Clouds,90,2013-03-07 09:30:00
5:00 PM,93.2,60.8,34,29.86,-9999.0,East,5.8,-,N/A,,Clear,90,2013-03-07 10:00:00
5:30 PM,93.2,60.8,34,29.86,-9999.0,East,4.6,-,N/A,,Clear,90,2013-03-07 10:30:00
6:00 PM,93.2,62.6,36,29.86,-9999.0,Calm,Calm,-,N/A,,Clear,0,2013-03-07 11:00:00
6:30 PM,89.6,66.2,46,29.86,-9999.0,SE,2.3,-,N/A,,Clear,140,2013-03-07 11:30:00
7:00 PM,88,72,51,29.87,5,Calm,Calm,,,,Haze,,2013-03-07 12:00:00
7:00 PM,89.6,62.6,40,29.86,6.2,Calm,Calm,-,N/A,,Scattered Clouds,0,2013-03-07 12:00:00
7:30 PM,89.6,64.4,43,29.89,6.2,Calm,Calm,-,N/A,,Scattered Clouds,0,2013-03-07 12:30:00
8:00 PM,87.8,68.0,52,29.89,6.2,West,4.6,-,N/A,,Scattered Clouds,270,2013-03-07 13:00:00
8:30 PM,84.2,69.8,62,29.92,6.2,SSW,9.2,-,N/A,,Scattered Clouds,200,2013-03-07 13:30:00
9:00 PM,84.2,71.6,66,29.92,6.2,South,8.1,-,N/A,,Scattered Clouds,190,2013-03-07 14:00:00
9:30 PM,84.2,73.4,70,29.92,6.2,South,8.1,-,N/A,,Scattered Clouds,190,2013-03-07 14:30:00
10:00 PM,82.4,71.6,70,29.95,6.2,SSW,5.8,-,N/A,,Scattered Clouds,200,2013-03-07 15:00:00
10:30 PM,84.2,73.4,70,29.95,6.2,SW,3.5,-,N/A,,Scattered Clouds,220,2013-03-07 15:30:00
11:00 PM,82.4,73.4,74,29.92,5.6,SSW,2.3,-,N/A,,Mostly Cloudy,210,2013-03-07 16:00:00
11:30 PM,84.2,73.4,70,29.92,5.6,SW,4.6,-,N/A,,Mostly Cloudy,220,2013-03-07 16:30:00